Yellow Mule RAWS (NWS)

Jump to table bottom
Date/Time Wind Direction Wind Speed knots Wind Gust knots RH % Accumulated Precip Inches Air Temp Fahrenheit
2022-11-28 10:04 NNE 2 5 74 13.7 4
2022-11-28 09:04 W 3 5 73 13.7 2
2022-11-28 08:04 SW 4 10 76 13.7 0
2022-11-28 07:04 WNW 5 13 77 13.7 0
2022-11-28 06:04 W 7 10 79 13.7 -1
2022-11-28 05:04 WSW 5 8 81 13.7 1
2022-11-28 04:04 WNW 6 15 82 13.7 3
2022-11-28 03:04 SW 9 15 82 13.7 3
2022-11-28 02:04 SW 12 19 83 13.7 5
2022-11-28 01:04 SW 14 20 83 13.7 6
2022-11-28 00:04 WSW 8 16 84 13.7 6
2022-11-27 23:04 WSW 10 16 84 13.7 7
2022-11-27 22:04 WSW 11 22 84 13.7 8
2022-11-27 21:04 SW 17 35 84 13.7 10
2022-11-27 20:04 SSW 20 41 75 13.7 16
2022-11-27 19:04 S 20 37 75 13.7 16
2022-11-27 18:04 S 16 37 74 13.7 17
2022-11-27 17:04 SSE 15 28 79 13.7 15
2022-11-27 16:04 S 15 28 74 13.7 17
2022-11-27 15:04 SSE 17 38 74 13.7 17
2022-11-27 14:04 SSE 16 30 73 13.7 18
2022-11-27 13:04 S 17 32 74 13.7 18
2022-11-27 12:04 S 17 31 77 13.7 18
2022-11-27 11:04 SSE 12 27 81 13.7 16
2022-11-27 10:04 SSE 14 32 78 13.7 16
2022-11-27 09:04 S 14 35 75 13.7 16
2022-11-27 08:04 S 13 28 75 13.7 16
2022-11-27 07:04 S 4 35 75 13.7 15
2022-11-27 06:04 S 17 33 85 13.7 14
2022-11-27 05:04 S 8 15 85 13.7 10
2022-11-27 04:04 SSE 14 17 82 13.7 10
2022-11-27 03:04 SSE 10 16 79 13.7 10
2022-11-27 02:04 S 11 15 90 13.7 9
2022-11-27 01:04 SSE 5 14 89 13.7 9
2022-11-27 00:04 S 9 17 81 13.7 12
2022-11-26 23:04 S 10 21 82 13.7 13
2022-11-26 22:04 SSW 12 19 79 13.7 14
2022-11-26 21:04 SSW 11 15 79 13.7 14
2022-11-26 20:04 SSW 10 15 89 13.7 14
2022-11-26 19:04 SSW 10 16 89 13.7 15
2022-11-26 18:04 SW 11 17 84 13.7 15
2022-11-26 17:04 WSW 11 15 83 13.7 15
2022-11-26 16:04 WSW 9 13 81 13.7 17
2022-11-26 15:04 WSW 7 11 78 13.7 20
2022-11-26 14:04 WNW 6 12 82 13.7 21
2022-11-26 13:04 NW 7 12 87 13.7 21
2022-11-26 12:04 NNW 10 15 89 13.7 20
2022-11-26 11:04 WSW 8 17 86 13.7 22
2022-11-26 10:04 SW 10 13 88 13.7 22
2022-11-26 09:04 SW 7 14 91 13.7 21